Regional Weather Roundup
Issued by NWS

Home | Current Version | Previous Version | Text Only | Print | Product List | Glossary Off
Versions: 1 2 3 4 5 6 7 8 9 10 11 12 13 14 15 16 17 18 19 20 21 22 23 24 25 26 27 28 29 30 31 32 33 34 35 36 37 38 39 40 41 42 43 44 45 46 47 48 49 50

177
ASUS45 KBOI 302210
RWRID

IDAHO REGIONAL WEATHER ROUNDUP
NATIONAL WEATHER SERVICE BOISE ID
400 PM MDT THU MAR 30 2017

NOTE: "FAIR" INDICATES FEW OR NO CLOUDS BELOW 12000 FEET
WITH NO SIGNIFICANT WEATHER AND/OR OBSTRUCTIONS TO VISIBILITY

IDZ012-014-302300-
SOUTHWEST IDAHO


CITY           SKY/WX    TMP DP  RH WIND       PRES   REMARKS
BOISE          LGT RAIN  38  37  97 NW23G33   29.79R FOG     WCI  27
CALDWELL       LGT RAIN  42  34  73 NW22G31   29.86R
MOUNTAIN HOME  LGT RAIN  36  36 100 NW30G45   29.74R WCI  23
$$

IDZ016-017-302300-
SOUTHCENTRAL IDAHO


CITY           SKY/WX    TMP DP  RH WIND       PRES   REMARKS
BURLEY         FLURRIES  36  32  85 W18G36    29.68S WCI  26
JEROME         FOG       33  33 100 SW26G32   29.69R VSB 3/4 WCI  20
TWIN FALLS     LGT SNOW  34  33  96 W23G33    29.71S FOG     WCI  22
$$

IDZ019>023-302300-
SOUTHEAST IDAHO


CITY           SKY/WX    TMP DP  RH WIND       PRES   REMARKS
IDAHO FALLS    CLOUDY    50  41  71 N9        29.62F
POCATELLO      LGT RAIN  38  37  97 SW29G38   29.66R WCI  26
REXBURG        CLOUDY    48  39  71 E8        29.63F
$$

IDZ006-010-011-018-031-032-302300-
CENTRAL IDAHO MOUNTAINS


CITY           SKY/WX    TMP DP  RH WIND       PRES   REMARKS
MCCALL         FLURRIES  33  26  75 N17G26    29.80R WCI  22
HAILEY         LGT RAIN  39  37  93 E9        29.64R WCI  33
STANLEY          N/A     34  32  92 N7        29.65R WCI  28
SALMON         CLOUDY    46  36  66 N15G26    29.68S
CHALLIS        LGT RAIN  45  37  73 NE9       29.64R
$$

IDZ002-004-006-007-026-302300-
NORTHERN IDAHO


CITY           SKY/WX    TMP DP  RH WIND       PRES   REMARKS
LEWISTON       CLOUDY    52  35  52 NW13      30.00S
LOWELL           N/A     46  42  86 CALM      29.98R
COEUR D`ALENE  PTSUNNY   50  36  58 SW9       29.96S
MULLAN PASS    PTSUNNY   34  30  85 NW7       29.89R WCI  28
$$




USA.gov is the U.S. government's official web portal to all federal, state and local government web resources and services.